Bettles, AK

10:35 AM AKST on November 24, 2017 (GMT -0900)
Bettles

Weather History for PABT - September, 2012

Change the Weather History Date:

Sunday, September 30, 2012

  Actual Average Record
Temperature  
Mean Temperature 34 °F -  
Max Temperature 35 °F 38 °F 55 °F (1966)
Min Temperature 32 °F 26 °F 4 °F (1992)
Degree Days  
Heating Degree Days 32    
Moisture  
Dew Point 33 °F    
Average Humidity 99    
Maximum Humidity 100    
Minimum Humidity 92    
Precipitation  
Precipitation 0.03 in - - ()
Sea Level Pressure  
Sea Level Pressure 29.99 in    
Wind  
Wind Speed 4 mph (SSE)    
Max Wind Speed 6 mph    
Max Gust Speed -    
Visibility 4 miles    
Events Rain , Snow    
Averages and records for this station are not official NWS values.
T = Trace of Precipitation, MM = Missing Value Source: NWS Daily Summary

Daily Weather History Graph

Daily Weather History Graph

Search for Another Location

Airport or City:

Trip Planner

Search our weather history database for the weather conditions in past years. The results will help you decide how hot, cold, wet, or windy it might be!

Date:

Astronomy

Sep. 30, 2012 Rise Set
Actual Time 8:16 AM AKDT 7:33 PM AKDT
Civil Twilight 7:23 AM AKDT 8:25 PM AKDT
Nautical Twilight 6:20 AM AKDT 9:28 PM AKDT
Astronomical Twilight 5:09 AM AKDT 10:38 PM AKDT
Moon 6:50 PM AKDT (9/30) 9:41 AM AKDT (9/30)
Length of Visible Light 13h 01m
Length of Day
11h 16m
Full, 100% of the Moon is Illuminated
Sep 30
Full
Oct 7
Last Quarter
Oct 15
New
Oct 21
First Quarter
Oct 29
Full

Hourly Weather History & Observations

Time (AKDT) Temp. Windchill Dew Point Humidity Pressure Visibility Wind Dir Wind Speed Gust Speed Precip Events Conditions
12:53 AM 34.0 °F - 34.0 °F 100% 29.85 in 1.8 mi Calm Calm - 0.00 in Rain Light Rain
1:04 AM 33.8 °F 29.6 °F 33.8 °F 100% 29.81 in 2.5 mi South 4.6 mph - 0.01 in Rain Light Rain
1:18 AM 33.8 °F 30.8 °F 33.8 °F 100% 29.82 in 3.0 mi South 3.5 mph - 0.01 in Rain Light Rain
1:53 AM 33.1 °F 30.0 °F 33.1 °F 100% 29.87 in 4.0 mi SE 3.5 mph - 0.01 in Snow Light Snow
2:50 AM 32.0 °F 28.7 °F 32.0 °F 100% 29.84 in 2.5 mi SSE 3.5 mph - 0.00 in Rain Light Rain
2:53 AM 32.0 °F 28.7 °F 32.0 °F 100% 29.88 in 2.5 mi SSE 3.5 mph - 0.01 in Rain Light Rain
3:53 AM 32.0 °F 26.4 °F 32.0 °F 100% 29.90 in 2.0 mi South 5.8 mph - 0.00 in Rain Light Rain
4:17 AM 32.0 °F 27.5 °F 32.0 °F 100% 29.87 in 3.0 mi South 4.6 mph - 0.00 in Rain Light Rain
4:53 AM 32.0 °F 26.4 °F 32.0 °F 100% 29.92 in 2.5 mi South 5.8 mph - 0.00 in Rain Light Rain
5:09 AM 32.0 °F 27.5 °F 32.0 °F 100% 29.89 in 3.0 mi SSE 4.6 mph - 0.00 in Rain Light Rain
5:53 AM 32.0 °F 26.4 °F 32.0 °F 100% 29.94 in 2.5 mi South 5.8 mph - 0.01 in Snow Light Snow
6:10 AM 32.0 °F 28.7 °F 32.0 °F 100% 29.90 in 3.0 mi South 3.5 mph - 0.00 in Snow Light Snow
6:51 AM 32.0 °F 28.7 °F 32.0 °F 100% 29.91 in 2.5 mi SSE 3.5 mph - 0.00 in Snow Light Snow
6:53 AM 32.0 °F 27.5 °F 32.0 °F 100% 29.95 in 2.5 mi SSE 4.6 mph - 0.00 in Snow Light Snow
7:23 AM 32.0 °F 28.7 °F 32.0 °F 100% 29.91 in 3.0 mi SSE 3.5 mph - 0.00 in Snow Light Snow
7:44 AM 32.0 °F 27.5 °F 32.0 °F 100% 29.92 in 5.0 mi SSE 4.6 mph - 0.01 in Snow Light Snow
7:51 AM 32.0 °F 27.5 °F 32.0 °F 100% 29.92 in 5.0 mi SSE 4.6 mph - 0.01 in Snow Light Snow
7:53 AM 32.0 °F 27.5 °F 32.0 °F 100% 29.96 in 5.0 mi SSE 4.6 mph - 0.01 in Snow Light Snow
8:55 AM 32.0 °F 26.4 °F 30.2 °F 93% 29.94 in 2.5 mi SSE 5.8 mph - 0.00 in Snow Light Snow
9:02 AM 32.0 °F 26.4 °F 30.2 °F 93% 29.95 in 2.5 mi SSE 5.8 mph - 0.00 in Snow Light Snow
9:49 AM 32.0 °F 27.5 °F 32.0 °F 100% 29.96 in 1.8 mi SSE 4.6 mph - 0.00 in Snow Light Snow
9:53 AM 32.0 °F 27.5 °F 32.0 °F 100% 30.00 in 2.0 mi South 4.6 mph - 0.00 in Snow Light Snow
10:53 AM 32.0 °F 27.5 °F 32.0 °F 100% 30.02 in 1.2 mi SSE 4.6 mph - 0.01 in Snow Light Snow
11:26 AM 32.0 °F 27.5 °F 32.0 °F 100% 29.99 in 1.8 mi SSE 4.6 mph - 0.01 in Snow Light Snow
11:30 AM 32.0 °F 27.5 °F 32.0 °F 100% 29.99 in 2.5 mi SSE 4.6 mph - 0.01 in Snow Light Snow
11:34 AM 32.0 °F 27.5 °F 32.0 °F 100% 29.99 in 3.0 mi SSE 4.6 mph - 0.01 in Snow Light Snow
11:53 AM 32.0 °F 27.5 °F 32.0 °F 100% 30.04 in 4.0 mi SSE 4.6 mph - 0.01 in Snow Light Snow
12:23 PM 32.0 °F 27.5 °F 32.0 °F 100% 30.00 in 2.5 mi SSE 4.6 mph - 0.00 in Snow Light Snow
12:53 PM 33.1 °F 27.7 °F 32.0 °F 96% 30.05 in 2.5 mi SSE 5.8 mph - 0.00 in Snow Light Snow
1:51 PM 33.8 °F 29.6 °F 33.8 °F 100% 30.01 in 2.5 mi SSE 4.6 mph - 0.00 in Rain , Snow Light Rain
1:53 PM 34.0 °F 28.8 °F 33.1 °F 96% 30.06 in 2.5 mi SE 5.8 mph - 0.00 in Rain , Snow Light Rain
2:32 PM 33.8 °F 28.6 °F 33.8 °F 100% 30.02 in 3.0 mi SSE 5.8 mph - 0.01 in Rain , Snow Light Rain
2:53 PM 34.0 °F 31.0 °F 33.1 °F 96% 30.07 in 3.0 mi South 3.5 mph - 0.01 in Rain Light Rain
3:53 PM 34.0 °F 31.0 °F 34.0 °F 100% 30.07 in 4.0 mi South 3.5 mph - 0.00 in Rain Light Rain
4:43 PM 33.8 °F 29.6 °F 33.8 °F 100% 30.03 in 4.0 mi South 4.6 mph - 0.00 in Rain , Snow Light Rain
4:51 PM 35.6 °F 31.7 °F 33.8 °F 93% 30.03 in 5.0 mi SSE 4.6 mph - 0.01 in Rain , Snow Light Rain
4:53 PM 35.1 °F 31.0 °F 34.0 °F 96% 30.08 in 5.0 mi Variable 4.6 mph - 0.01 in Rain , Snow Light Rain
5:08 PM 33.8 °F 30.8 °F 33.8 °F 100% 30.04 in 5.0 mi SSE 3.5 mph - 0.00 in Rain Light Rain
5:51 PM 33.8 °F 28.6 °F 33.8 °F 100% 30.04 in 4.0 mi South 5.8 mph - 0.00 in Rain Light Rain
5:53 PM 34.0 °F 28.8 °F 33.1 °F 96% 30.09 in 4.0 mi South 5.8 mph - 0.00 in Rain Light Rain
6:53 PM 34.0 °F 29.8 °F 32.0 °F 92% 30.09 in 10.0 mi SSE 4.6 mph - 0.00 in   Overcast
7:53 PM 33.1 °F - 33.1 °F 100% 30.09 in 10.0 mi Calm Calm - N/A   Overcast
8:53 PM 33.1 °F - 33.1 °F 100% 30.09 in 10.0 mi Calm Calm - N/A   Overcast
9:36 PM 33.8 °F 30.8 °F 32.0 °F 93% 30.05 in 6.0 mi SSE 3.5 mph - N/A   Overcast
9:53 PM 33.1 °F - 33.1 °F 100% 30.10 in 7.0 mi Calm Calm - N/A   Overcast
10:06 PM 33.8 °F - 32.0 °F 93% 30.06 in 7.0 mi Calm Calm - N/A   Overcast
10:32 PM 33.8 °F - 32.0 °F 93% 30.06 in 7.0 mi Calm Calm - N/A   Overcast
10:53 PM 33.1 °F - 33.1 °F 100% 30.10 in 7.0 mi Calm Calm - N/A   Overcast
11:09 PM 33.8 °F 30.8 °F 32.0 °F 93% 30.06 in 10.0 mi SSE 3.5 mph - N/A   Overcast
11:32 PM 33.8 °F - 32.0 °F 93% 30.07 in 10.0 mi Calm Calm - N/A   Overcast
11:43 PM 32.0 °F 28.7 °F 32.0 °F 100% 30.07 in 10.0 mi SSE 3.5 mph - N/A   Overcast
11:53 PM 32.0 °F - 32.0 °F 100% 30.11 in 10.0 mi Calm Calm - N/A   Overcast